Location: Aiyereke
(8.6000°N, 4.4667°E)
Time: 07:19:19
(UTC+00:00)

Daily predictions for brighter satellites

Satellite Brightness Start Highest point End
(mag) Time Altitude Azimuth Time Altitude Azimuth Time Altitude Azimuth
Abrixas rocket 3.8 18:20:23 10° N 18:22:18 16° NE 18:24:14 10° E
Cosmos 2151 4.0 18:19:46 10° SSW 18:23:51 51° W 18:27:56 10° N
CZ-4 R/B 1.4 18:23:58 10° SSE 18:27:43 54° ENE 18:31:30 10° N
MOS 1 Rocket 3.8 18:25:38 10° NNE 18:30:42 45° E 18:35:31 10° S
Cosmos 1452 Rocket 3.9 18:27:34 10° NNW 18:32:46 69° WSW 18:37:59 10° S
Milstar 3 4.0 18:28:15 10° W 18:35:11 50° SSW 18:46:23 10° SE
Meteor 2-3 Rocket 3.7 18:30:35 10° S 18:36:17 70° E 18:42:01 10° NNE
Cosmos 2369 Rocket 2.5 18:35:23 10° NNW 18:41:01 73° WSW 18:46:42 10° S
Cosmos 2218 Rocket 4.2 18:36:38 10° SSE 18:42:34 46° E 18:48:24 10° NNE
Cosmos 2263 4.2 18:37:30 10° NNW 18:43:15 77° ENE 18:48:58 10° SSE
Cosmos 1331 Rocket 4.3 18:40:45 10° N 18:45:40 43° ENE 18:50:32 10° SSE
Centaur D AC-29 2.6 18:41:35 10° SW 18:46:04 64° SE 19:06:09 10° ENE
H-2A R/B 2.9 18:42:43 10° SE 18:47:23 31° ENE 18:51:55 10° NNE
CSL-04 Debris 4.2 18:47:15 10° SSE 18:52:40 62° ENE 18:58:04 10° N
Nadezhda 3 Rocket 3.9 18:47:40 10° N 18:53:49 80° E 18:59:58 10° S
CZ-2C R/B 2.9 18:49:29 10° NNE 18:54:24 43° ESE 18:59:26 10° S
Cosmos 1328 Rocket 4.4 18:52:16 10° NNE 18:56:05 29° E 18:57:51 22° ESE
Ariane H10+ 2.6 18:54:48 10° SW 18:55:58 16° SSW 18:55:58 16° SSW
Meteor 2-12 Rocket 4.4 18:52:32 10° S 18:58:41 82° E 19:04:50 10° N
Cosmos 1656 Rocket 3.6 18:55:53 10° NNW 19:01:25 78° ENE 19:07:03 10° SSE
Cosmos 864 Rocket 4.5 18:56:06 10° S 19:02:20 67° E 19:08:35 10° N
H-2A ROCKET BODY 2.4 18:59:51 10° NW 19:03:20 70° NNE 19:10:25 22° ESE
FALCON 9 R/B 3.0 19:02:00 10° WSW 19:03:27 13° SW 19:04:38 10° SSW
Cosmos 1933 3.8 19:01:13 10° NNE 19:05:03 40° E 19:06:29 29° SE
Cosmos 1833 Rocket 2.8 19:00:03 10° S 19:05:27 51° ESE 19:10:51 10° NNE
Cosmos 1867 3.9 19:07:45 10° S 19:12:46 40° ESE 19:17:47 10° NE
deb Ariane 2.6 19:11:30 10° W 19:14:40 53° SSW 19:14:40 53° SSW
DMSP B5D2-2 3.9 19:11:08 10° NNE 19:16:21 75° ESE 19:21:36 10° S
Cosmos 1606 2.8 19:14:51 10° N 19:18:37 72° W 19:21:18 18° S
Ariane H10+ 4.3 19:15:13 10° WSW 19:19:48 73° S 19:34:48 21° E
Ariane H10+ 4.3 19:15:13 10° WSW 19:19:49 73° S 19:34:48 21° E
Ariane H10+ 4.3 19:15:13 10° WSW 19:19:49 73° S 19:34:47 21° E
Cosmos 1633 4.1 19:17:33 10° SSW 19:20:49 35° W 19:24:03 10° NNW
ARIANE 5 R/B 2.3 19:04:04 10° W 19:21:07 59° S 19:22:31 40° SE
ISS -2.1 19:23:51 10° NNW 19:25:48 25° NNE 19:25:48 25° NNE
Cosmos 1515 Rocket 4.3 19:26:08 10° NNE 19:29:21 37° NE 19:29:21 37° NE
Cosmos 614 Rocket 3.9 19:26:00 10° SSW 19:31:05 80° WNW 19:36:13 10° N
NOSS 3-2 (A) 3.4 19:26:44 10° S 19:36:58 11° NE 19:37:10 10° NE
Yuri Rocket 4.4 19:28:22 10° W 19:32:22 34° NNW 19:34:35 20° NNE
Cosmos 1151 Rocket 3.3 19:32:46 10° NNW 19:36:59 63° W 19:38:42 34° SSW
Cosmos 1821 Rocket 3.9 19:40:40 53° ESE 19:40:56 54° E 19:46:52 10° NNE
IRS-1A Rocket 4.1 19:43:00 62° ESE 19:43:30 65° ENE 19:49:02 10° N
Meteor 1-26 Rocket 4.0 19:43:02 10° N 19:48:27 86° W 19:49:33 58° S
Cosmos 1302 Rocket 4.1 19:46:59 10° NNW 19:52:10 72° WSW 19:52:54 62° SSW
Cosmos 2082 Rocket 2.1 19:52:43 10° SSW 19:58:26 85° WNW 20:04:08 10° NNE
Ariane Rocket 3.4 20:07:49 58° W 20:07:49 58° W 20:12:27 10° NNW
ARGOS 4.4 20:10:54 28° SW 20:12:49 36° WSW 20:17:43 10° NW
USA 238 DEB 4.2 20:20:50 10° SW 20:27:09 51° WNW 20:33:32 10° N
USA 238 4.2 20:20:58 10° SW 20:27:16 52° WNW 20:33:38 10° N
CZ-3A R/B 4.3 20:23:45 10° WNW 20:45:51 38° N 20:48:05 34° NNE
